Location: Oberwangen
(47.4286°N, 8.9679°E)
Time: 07:18:39
(UTC+00:00)

Lacrosse 5 rocket - Pass Details

Date: 20 June 2021
Orbit: 460 x 633 km, 57.0° (Epoch: 04 August)

Event Time Altitude Azimuth Distance (km) Brightness Sun altitude
Rises 22:03:35 0° 270° (W) 2,517 5.0 -16.7°
Reaches altitude 10° 22:06:01 10° 284° (WNW) 1,625 4.2 -16.9°
Maximum altitude 22:09:04 25° 341° (NNW) 987 3.5 -17.0°
Drops below altitude 10° 22:12:05 10° 39° (NE) 1,613 4.1 -17.2°
Sets 22:14:30 0° 53° (NE) 2,493 4.9 -17.3°
